Wind_Speed
18 22 26 31 32 31 32 34 34 33 33 33 32 30 29 27 27 28 29 30 29 27 25 22 21 23 27 29 30 31 31 31 31 29 27 27 28 26 24 23 21 20 17 16 15 13 10 8 7 5 5 6 6 6 7 9 9 6 4 3 1 1 2
14 18 22 28 32 32 32 32 33 33 33 33 33 32 30 29 28 29 31 32 32 31 29 25 22 22 25 28 31 32 32 33 32 31 29 29 29 27 26 25 23 21 19 19 19 17 14 12 9 8 7 6 6 7 7 8 9 8 5 4 2 2 2
12 14 18 24 29 31 31 30 29 30 30 30 30 29 29 29 29 30 31 32 32 32 29 26 23 22 23 26 30 32 32 32 32 31 30 30 30 28 28 27 25 23 21 20 21 20 18 16 13 11 9 7 7 8 8 8 8 8 7 5 3 3 3
15 15 16 20 25 30 32 29 28 29 30 29 29 28 28 29 29 30 31 32 32 30 28 25 24 24 24 24 27 30 32 32 31 31 31 31 31 30 30 29 28 25 24 23 21 21 21 20 17 15 13 11 10 9 8 7 7 7 7 6 4 3 3
19 19 19 20 21 26 31 30 28 28 30 30 30 30 30 30 30 30 31 31 29 27 25 25 26 27 26 24 24 28 30 30 30 31 31 31 32 32 31 31 29 27 26 25 23 22 22 21 21 19 16 15 13 10 9 9 7 6 7 7 6 4 3
23 22 22 23 23 24 29 32 30 28 29 30 30 29 28 27 27 27 28 29 28 25 25 26 27 28 28 25 24 26 28 29 29 30 30 30 32 33 32 32 31 29 27 26 25 24 22 22 22 21 19 17 14 12 11 10 9 8 7 8 8 6 4
26 25 25 25 26 26 28 32 33 31 29 28 27 28 28 28 27 25 25 27 28 27 26 27 28 28 29 28 26 27 28 28 29 30 29 29 30 32 32 32 31 30 28 26 26 26 24 23 23 22 20 18 16 15 13 11 11 9 8 8 9 9 6
28 29 28 28 29 28 28 31 34 35 32 28 25 25 27 29 29 27 25 25 26 26 26 26 27 28 30 30 28 28 29 29 30 31 30 29 30 31 32 32 32 31 28 26 26 28 26 25 25 23 22 20 19 17 14 13 13 9 8 9 9 9 7
31 30 31 31 32 31 29 30 34 37 35 31 27 25 26 28 29 29 26 25 24 25 25 26 28 29 31 32 30 30 30 30 31 32 31 30 30 31 32 33 32 31 29 26 26 28 28 27 27 26 24 23 22 21 18 16 14 10 9 10 9 9 8
35 34 33 33 34 35 32 30 32 37 36 32 28 26 26 28 30 30 28 26 26 27 27 28 30 30 30 30 30 30 29 28 30 31 31 31 31 31 32 34 33 31 28 27 26 28 29 29 30 29 27 26 25 25 22 19 16 12 11 11 9 8 9
37 38 37 35 35 36 36 34 32 35 37 33 28 28 27 28 30 32 32 30 28 29 30 32 32 31 30 29 29 29 27 26 28 29 30 32 32 32 33 35 35 32 29 28 27 28 29 31 32 32 31 29 28 28 25 22 19 15 14 13 9 8 10
36 38 39 39 38 37 38 38 36 35 37 36 33 32 31 29 30 32 33 33 31 31 32 33 33 32 31 29 28 28 27 26 26 26 27 29 32 33 34 36 37 34 30 29 28 28 29 31 33 33 33 32 31 30 27 25 23 18 16 14 11 10 11
34 37 39 40 41 39 38 39 40 39 39 40 39 39 37 34 32 32 33 33 32 32 32 32 32 31 30 29 29 29 27 26 26 25 25 26 29 32 34 36 38 37 33 31 30 29 30 31 33 33 33 33 32 31 29 29 26 21 18 17 14 13 13
29 33 37 39 41 42 41 40 41 42 43 43 43 44 42 39 36 35 34 33 32 32 32 31 31 30 28 28 30 31 30 29 28 28 27 26 26 29 31 34 37 38 36 34 33 32 31 32 33 34 34 34 34 32 31 30 28 23 20 20 18 16 15
23 26 31 35 38 40 42 42 42 43 44 46 47 47 47 44 41 39 37 36 34 34 34 33 33 32 29 28 30 33 34 33 32 32 31 29 26 26 29 32 35 37 37 36 35 34 34 33 34 34 35 35 34 33 31 31 30 27 24 22 21 19 18
20 22 25 29 33 37 40 42 44 44 44 45 47 49 49 48 46 44 41 39 37 37 37 38 38 39 37 34 32 33 35 35 35 34 33 33 30 28 27 29 31 33 34 36 36 36 36 36 36 36 36 36 35 33 31 31 31 29 27 25 24 24 22
19 20 22 24 28 31 35 39 42 45 46 46 47 47 48 50 50 49 46 44 42 41 41 41 43 46 46 44 40 38 39 40 40 39 37 36 36 33 29 28 27 29 31 34 35 36 38 39 39 39 38 37 36 34 33 32 31 30 29 28 28 27 26
17 19 20 22 24 26 30 33 37 41 45 47 49 49 48 49 52 53 51 49 47 47 46 46 46 47 50 51 49 47 46 47 48 46 41 39 40 39 35 32 29 28 30 33 34 35 37 39 41 41 40 39 38 37 35 34 33 32 32 32 31 30 30
16 18 20 21 23 24 26 29 32 36 40 45 48 50 51 50 52 54 54 53 51 51 51 50 49 48 49 51 52 51 51 51 52 51 47 43 42 41 39 37 33 30 30 32 33 34 36 38 41 42 42 42 41 39 39 37 36 35 34 34 34 34 33
16 17 19 21 23 24 26 27 29 31 35 40 45 48 51 52 53 56 57 56 55 53 53 53 52 51 50 50 51 51 51 51 50 49 48 46 44 43 41 40 39 35 33 33 33 33 34 37 40 42 43 43 42 43 42 41 39 38 37 36 36 37 37
16 17 18 20 22 24 26 27 29 30 32 36 41 44 48 51 53 56 59 60 59 57 56 54 53 54 54 53 51 51 50 49 47 44 43 44 46 46 44 42 42 40 36 35 34 33 34 35 38 42 43 42 43 44 45 44 43 41 40 39 38 38 39
15 16 17 19 21 23 25 27 28 30 31 34 37 40 44 48 52 56 60 62 62 61 60 59 56 55 56 55 53 52 51 49 48 45 42 43 46 49 47 42 42 41 39 37 35 34 34 35 37 40 42 42 42 43 45 46 46 45 43 42 40 39 40
14 15 16 18 19 21 24 26 28 30 31 32 34 37 40 44 48 52 57 61 63 64 63 62 60 58 59 58 56 55 54 52 50 48 46 44 45 47 47 44 41 41 41 39 36 34 35 36 37 39 40 41 41 41 43 44 46 47 46 45 43 41 41
14 16 17 18 18 20 21 23 26 28 30 32 34 36 38 41 44 47 51 55 59 62 63 62 62 60 60 60 58 57 56 55 53 51 49 48 46 44 45 45 43 41 41 41 38 35 35 36 37 38 40 40 40 40 40 41 44 46 47 47 45 43 43
13 14 16 16 17 18 19 20 22 25 27 30 33 36 38 40 42 44 47 50 53 56 58 59 60 60 61 60 59 58 57 56 55 53 51 51 49 46 44 44 44 42 42 42 40 37 36 37 37 37 38 39 40 39 38 40 41 43 44 45 46 46 45
10 11 13 13 13 14 16 18 20 21 23 26 29 32 35 38 41 43 45 47 49 52 54 55 56 57 59 60 59 58 57 57 56 55 53 52 52 51 48 47 46 43 43 44 42 39 37 37 36 36 37 38 39 39 39 39 40 41 42 43 44 46 46
11 11 11 11 11 10 11 13 16 18 21 23 25 27 29 33 36 39 42 44 46 48 51 53 54 55 56 58 58 57 58 58 58 58 57 55 54 54 52 50 49 46 43 43 43 41 38 36 35 34 35 37 38 39 39 40 41 42 42 42 43 44 44
12 13 13 11 10 9 9 10 12 15 17 19 22 24 25 28 31 34 37 40 43 45 47 49 52 54 56 56 56 57 58 59 59 59 59 58 57 57 54 51 51 49 45 43 43 42 39 36 33 33 34 36 37 38 39 40 41 42 42 43 43 43 41
11 12 14 13 12 11 11 11 11 13 14 15 17 19 22 24 27 29 33 36 39 41 43 44 47 51 54 56 57 57 57 58 59 60 60 59 58 58 56 54 54 52 48 43 41 41 41 38 35 34 34 35 35 36 38 38 39 40 41 44 45 43 40
9 11 13 13 13 12 11 11 12 12 13 14 15 16 18 20 22 24 27 30 34 37 39 40 42 45 49 53 56 57 57 57 58 59 61 61 60 57 55 55 56 54 50 46 42 41 42 42 40 37 36 35 35 36 37 37 37 38 40 43 44 43 42
8 10 11 12 13 12 11 11 11 12 12 12 14 15 17 18 19 20 21 23 26 30 33 35 37 41 44 48 52 55 56 56 56 57 59 60 61 59 56 55 54 52 51 49 46 43 43 44 44 42 39 38 37 38 36 35 36 37 39 41 42 43 43
7 9 11 12 12 12 12 11 12 12 12 12 12 14 16 17 17 19 20 20 22 24 27 29 31 35 39 43 48 52 54 55 55 55 56 58 60 62 60 56 53 52 51 51 51 48 44 43 46 46 43 41 41 40 36 34 35 37 38 40 42 43 44
7 8 10 11 11 11 11 11 11 12 12 13 12 13 14 15 16 17 20 21 21 22 23 24 25 29 33 37 42 48 51 53 52 52 53 55 57 61 62 59 56 54 52 51 51 50 45 42 45 47 47 46 46 43 38 35 36 37 38 40 42 44 45
7 8 9 10 10 10 10 10 10 10 11 11 12 12 12 13 15 16 19 21 22 23 24 23 23 26 29 32 37 42 47 49 49 49 49 50 52 54 57 58 57 56 53 49 48 47 44 42 44 47 49 51 49 44 40 39 38 38 39 41 43 45 47
8 9 9 10 10 10 10 10 10 10 11 10 10 10 10 11 12 14 16 19 22 24 25 25 23 24 27 30 34 39 43 46 46 46 46 47 48 49 50 51 53 54 54 51 48 44 41 40 42 44 48 50 48 44 42 42 41 40 40 42 43 45 47
10 11 11 11 11 11 11 10 10 11 12 12 11 11 10 10 10 12 13 15 17 20 23 25 25 24 26 29 33 37 40 42 43 44 45 45 46 46 46 46 48 50 53 54 52 48 45 43 43 43 44 49 50 46 44 45 45 44 43 44 44 45 46
11 12 12 11 11 11 12 12 11 11 11 12 12 12 11 11 11 11 11 12 14 15 17 20 24 24 25 28 32 36 38 40 41 41 42 43 43 44 44 45 46 47 49 51 53 52 51 49 48 45 45 48 52 51 48 48 48 47 46 45 45 45 46
Wind_Direction
206 209 213 212 209 209 209 207 208 209 211 211 210 209 210 210 209 209 209 214 224 229 227 227 229 229 227 223 221 221 223 220 214 212 213 221 228 230 230 232 237 242 246 251 255 255 247 236 233 254 303 320 328 338 339 341 341 332 307 287 268 263 292
219 214 212 211 210 209 208 209 211 213 213 213 213 214 213 212 213 214 215 217 223 227 225 225 230 234 232 227 223 222 224 222 217 214 213 218 226 232 236 238 240 243 245 247 248 248 246 241 243 257 283 300 309 317 323 330 334 330 315 290 261 232 253
230 225 216 211 209 207 205 206 209 211 213 213 213 215 213 212 215 219 222 225 228 230 227 225 231 237 238 235 230 226 226 224 220 217 216 219 225 230 236 241 243 243 243 243 243 246 248 248 251 259 272 284 289 299 310 319 327 328 319 300 269 229 231
229 225 220 212 209 206 202 203 207 208 210 211 210 211 211 210 212 217 221 225 229 232 231 230 233 235 236 237 237 233 230 227 222 219 217 219 224 228 232 237 241 243 244 244 242 245 249 252 256 261 267 271 273 283 296 304 318 325 319 309 290 243 226
230 223 220 216 212 209 205 201 202 204 206 208 208 209 210 212 213 216 219 223 227 231 235 237 236 235 232 232 236 236 234 233 229 224 220 219 222 227 230 233 238 241 243 245 244 243 246 251 256 257 258 260 262 269 279 288 299 310 313 310 303 281 234
233 227 221 217 213 213 212 206 201 200 203 205 206 204 202 205 209 213 218 221 225 230 237 240 238 235 232 228 231 233 234 237 237 234 230 225 224 228 231 232 236 239 241 244 246 244 243 247 250 251 253 255 256 259 267 275 281 292 305 306 303 297 262
233 231 226 221 217 216 218 213 204 200 201 202 203 200 199 201 204 207 213 217 220 225 232 237 237 235 231 228 229 230 231 234 236 237 236 234 231 231 233 234 235 238 240 241 244 244 242 243 246 249 252 252 252 254 257 264 270 279 293 295 298 297 281
233 231 228 226 224 223 224 219 209 202 200 201 203 204 204 206 206 206 208 211 215 218 224 233 238 237 233 231 231 231 232 235 235 234 235 237 238 237 237 237 235 236 238 238 239 243 243 244 246 249 251 253 254 254 253 258 262 265 273 282 292 292 281
234 233 231 228 226 226 227 224 216 207 202 202 205 210 213 212 212 211 208 206 208 211 217 227 235 236 234 233 233 233 235 237 237 236 236 237 238 239 240 240 237 236 237 236 234 238 243 245 248 250 251 252 255 257 255 254 253 249 254 267 280 284 277
235 234 233 231 228 227 227 226 222 214 207 205 207 213 217 217 216 216 213 209 207 211 217 223 228 230 231 232 233 233 233 234 235 237 239 239 237 238 239 241 240 236 236 235 233 235 240 244 249 251 251 251 253 255 254 251 248 241 243 252 262 271 271
235 235 234 232 230 229 228 229 227 220 213 211 214 219 223 221 218 218 219 217 214 215 220 223 224 223 226 229 231 232 233 233 233 235 239 240 237 237 238 240 240 237 234 233 232 234 238 242 246 250 252 252 251 251 250 249 246 237 237 247 252 256 260
235 235 235 234 232 231 230 230 231 227 220 218 222 227 230 229 225 222 222 223 222 221 222 224 224 223 225 229 230 231 231 232 233 237 243 242 237 236 238 240 239 235 232 232 233 234 236 239 243 248 250 251 250 249 248 247 245 237 236 244 245 244 250
237 236 235 235 234 232 231 229 230 231 227 225 227 231 233 233 232 229 225 225 226 225 224 224 224 225 227 230 230 228 226 228 232 237 246 247 240 237 237 239 239 235 232 233 234 235 236 238 241 245 248 249 249 249 247 246 244 237 236 241 241 241 245
243 240 237 236 235 234 233 231 230 230 231 230 230 232 234 234 235 234 230 227 226 226 225 224 223 224 227 231 233 228 223 223 228 234 242 248 247 244 241 240 240 237 235 236 235 235 236 237 239 243 246 248 248 248 247 246 245 240 236 238 240 240 242
249 245 241 239 238 236 235 233 231 231 232 232 232 233 235 235 235 235 233 230 228 226 226 226 225 225 229 233 234 230 225 223 226 231 240 246 249 250 249 246 243 240 239 239 238 237 238 238 239 240 244 247 248 247 246 246 247 243 238 237 240 240 241
249 246 243 241 239 238 237 235 233 233 233 234 234 234 235 236 237 237 236 234 233 231 229 229 229 231 234 232 228 229 231 232 232 236 245 251 250 248 250 250 247 245 245 244 243 241 240 241 241 240 240 243 246 248 247 246 247 246 242 241 241 241 241
248 247 246 243 241 240 239 237 235 234 233 234 236 236 237 237 238 239 238 236 237 237 235 234 234 235 235 232 230 234 240 242 243 244 249 253 252 248 246 249 250 250 250 250 248 246 243 243 244 243 241 240 242 245 247 248 248 248 247 245 243 242 243
247 248 248 246 244 242 240 240 238 236 235 234 235 237 238 237 237 238 239 238 238 238 237 237 237 238 238 239 240 243 246 247 247 247 248 247 249 249 248 247 248 249 251 251 249 248 247 245 245 246 245 242 241 242 245 248 249 249 249 247 245 245 245
245 247 248 248 247 245 242 241 239 238 237 236 236 237 238 238 237 237 238 239 239 239 239 238 239 239 240 242 243 244 245 246 246 247 247 243 244 248 249 248 247 245 247 249 248 248 247 246 246 246 247 246 244 242 243 246 248 249 249 248 247 247 246
244 245 247 248 249 249 247 244 241 239 238 237 237 237 238 239 238 237 238 239 240 241 241 241 242 242 242 242 243 242 242 244 244 244 243 242 242 244 245 247 247 244 244 245 246 247 247 246 245 245 246 247 246 245 245 245 247 248 249 248 248 247 246
246 246 247 249 251 252 251 249 247 242 239 238 237 238 238 239 240 239 239 240 242 243 243 243 243 243 243 243 243 243 243 243 243 243 242 244 244 242 241 243 245 244 243 243 244 246 247 247 245 243 244 246 247 247 246 247 247 248 248 248 248 247 246
255 254 253 253 253 253 252 251 250 247 244 240 238 237 238 239 240 241 241 242 243 245 246 246 244 243 244 245 244 244 244 244 243 243 244 246 245 240 238 241 243 244 244 243 243 244 245 247 247 244 243 243 246 248 248 248 248 248 249 248 248 247 246
265 265 264 261 258 255 252 249 249 248 247 244 241 239 238 238 239 240 241 243 244 246 247 248 247 245 245 246 245 245 245 244 243 241 241 244 244 239 237 240 243 245 245 243 242 242 243 244 245 245 243 241 243 246 248 249 249 249 250 249 248 247 246
270 270 270 269 266 262 255 250 248 247 247 245 243 241 239 238 238 238 240 242 243 245 246 247 248 247 246 246 245 244 244 244 243 242 239 241 243 242 242 243 243 244 245 243 240 240 243 243 244 244 244 241 240 242 245 248 248 249 250 250 249 248 247
278 274 272 271 270 267 260 253 248 246 245 245 244 242 241 240 239 239 240 241 242 243 244 245 245 246 245 245 244 243 243 243 243 243 240 240 240 240 243 245 244 244 245 242 238 238 242 244 244 245 245 242 239 239 242 245 247 248 249 250 249 249 248
300 292 282 275 274 272 265 258 252 247 245 244 243 243 243 243 243 242 242 242 242 242 244 244 244 244 244 243 242 241 241 241 242 243 242 240 240 241 243 245 244 245 245 242 237 237 240 242 243 244 245 244 241 239 239 242 244 246 247 248 247 247 247
333 329 317 297 284 276 268 264 260 255 250 247 245 245 245 245 246 246 246 246 245 243 243 243 243 243 244 244 242 240 239 238 239 241 241 240 241 242 243 244 243 243 244 242 239 237 238 240 242 243 244 244 243 241 241 241 242 243 244 246 246 246 246
343 348 347 334 315 298 285 275 268 263 259 255 252 251 250 250 250 250 250 249 249 247 245 244 243 242 243 243 243 240 238 237 237 238 240 240 241 242 242 242 242 242 241 241 241 240 238 238 240 243 245 246 246 245 244 243 244 246 247 247 247 246 245
345 352 0 358 347 328 311 300 287 277 273 267 261 257 255 255 255 255 254 254 253 252 250 247 244 242 241 241 242 241 239 238 236 236 237 239 240 241 242 242 243 242 240 238 238 240 240 238 239 242 245 247 248 249 249 248 248 250 252 251 250 248 246
350 356 3 6 4 352 333 320 309 297 289 281 274 268 262 259 258 257 257 258 259 258 257 253 249 244 241 240 240 240 239 239 237 236 235 236 238 239 240 241 242 243 241 237 235 238 241 242 241 241 243 245 248 250 252 252 251 251 252 254 255 254 249
350 357 1 4 8 3 351 340 331 321 310 297 286 278 271 268 266 264 262 262 263 264 263 261 256 249 243 239 238 239 239 239 239 238 236 235 236 239 240 241 241 241 241 239 235 234 238 243 244 243 243 244 247 249 250 253 254 253 252 253 254 254 251
337 352 358 0 2 0 358 357 351 339 328 316 300 287 279 276 275 274 272 270 269 268 268 266 261 254 246 240 237 236 238 238 239 239 238 236 236 238 240 240 240 240 241 241 236 231 232 238 242 242 242 243 245 246 247 249 253 255 255 255 254 254 252
327 344 354 356 357 356 355 356 353 346 339 331 319 301 288 283 281 280 279 276 272 271 270 268 263 256 249 244 239 236 235 236 238 238 239 237 237 238 239 240 241 241 242 241 239 234 230 232 237 240 241 241 242 243 244 245 248 252 256 257 256 256 254
316 331 341 346 349 351 351 348 342 337 334 334 331 320 303 294 290 288 286 283 278 274 271 269 264 256 249 244 239 236 234 234 235 236 238 239 239 240 241 241 241 242 242 243 241 236 230 232 239 241 240 240 242 243 244 245 247 250 254 255 254 254 253
300 310 323 331 334 336 339 341 338 332 327 326 331 330 318 305 300 295 291 287 282 277 272 269 264 258 252 244 236 232 231 233 233 234 236 238 240 242 244 243 242 242 244 245 244 241 235 236 241 243 242 243 244 246 247 247 248 251 252 253 253 253 252
297 300 306 312 315 316 320 326 331 331 328 325 325 324 319 313 309 305 300 295 290 284 275 268 262 256 252 247 238 232 230 230 230 232 234 236 238 240 243 244 243 243 243 244 244 243 242 242 243 245 247 245 244 246 249 248 249 251 253 254 254 253 253
300 300 300 301 301 303 306 312 317 320 321 322 320 317 316 315 315 312 308 305 303 299 287 274 265 258 251 246 241 236 234 232 231 232 234 235 237 238 240 242 242 243 243 243 243 243 244 245 245 246 248 248 246 245 248 249 250 251 254 255 255 254 255
Height
3109 3110 3113 3116 3118 3120 3123 3125 3127 3128 3130 3132 3134 3136 3137 3139 3142 3144 3147 3149 3152 3155 3156 3158 3160 3161 3162 3164 3165 3166 3167 3168 3170 3171 3172 3172 3173 3174 3175 3176 3178 3179 3179 3180 3181 3183 3183 3184 3185 3186 3187 3187 3187 3187 3187 3187 3187 3187 3187 3186 3185 3185 3185
3108 3109 3111 3113 3115 3118 3120 3122 3124 3126 3128 3130 3132 3133 3135 3137 3140 3142 3145 3148 3151 3153 3155 3156 3158 3159 3160 3161 3163 3164 3165 3166 3168 3169 3170 3170 3171 3172 3173 3174 3176 3177 3178 3179 3180 3181 3182 3183 3184 3185 3186 3186 3186 3186 3186 3186 3186 3186 3187 3186 3185 3185 3184
3108 3109 3109 3110 3113 3116 3119 3120 3122 3123 3125 3127 3129 3131 3133 3135 3137 3140 3143 3145 3148 3150 3152 3154 3156 3157 3159 3160 3161 3162 3163 3164 3165 3167 3168 3169 3170 3171 3172 3172 3173 3175 3176 3176 3178 3179 3181 3182 3183 3184 3185 3185 3185 3186 3186 3186 3186 3186 3186 3186 3185 3184 3184
3106 3108 3109 3109 3111 3114 3116 3118 3119 3121 3123 3125 3127 3129 3130 3132 3135 3137 3140 3143 3146 3148 3150 3152 3154 3155 3157 3158 3159 3160 3162 3162 3163 3164 3166 3167 3168 3169 3170 3170 3171 3172 3174 3175 3176 3178 3179 3180 3182 3183 3184 3184 3184 3184 3185 3184 3185 3185 3185 3185 3185 3184 3184
3105 3106 3107 3109 3110 3112 3114 3115 3117 3119 3121 3123 3125 3126 3128 3130 3133 3135 3138 3141 3143 3146 3148 3149 3151 3153 3154 3156 3157 3158 3159 3160 3161 3162 3163 3165 3166 3167 3168 3168 3169 3170 3172 3173 3174 3175 3176 3178 3179 3180 3182 3182 3182 3183 3183 3183 3183 3184 3184 3184 3184 3184 3183
3102 3104 3106 3107 3108 3110 3112 3113 3115 3117 3119 3121 3123 3125 3126 3128 3130 3133 3135 3138 3141 3144 3145 3147 3148 3149 3151 3153 3154 3155 3156 3158 3159 3160 3161 3163 3164 3165 3166 3167 3167 3168 3170 3171 3172 3173 3174 3175 3176 3178 3179 3180 3181 3181 3181 3181 3182 3182 3183 3183 3183 3183 3183
3100 3102 3103 3105 3107 3108 3110 3112 3113 3115 3116 3119 3121 3122 3123 3124 3126 3129 3131 3134 3137 3140 3142 3143 3145 3146 3148 3150 3151 3153 3154 3155 3156 3157 3158 3160 3161 3163 3164 3164 3165 3166 3167 3169 3170 3171 3172 3172 3174 3175 3177 3178 3179 3179 3180 3180 3180 3181 3181 3182 3182 3182 3182
3097 3099 3101 3102 3104 3105 3107 3109 3111 3112 3114 3116 3118 3119 3120 3121 3123 3125 3127 3130 3132 3135 3138 3140 3142 3144 3145 3147 3149 3150 3152 3153 3153 3154 3155 3156 3158 3160 3162 3163 3163 3163 3165 3167 3168 3169 3170 3170 3171 3173 3174 3175 3176 3177 3178 3178 3179 3180 3180 3180 3180 3181 3181
3094 3095 3097 3099 3100 3102 3104 3106 3108 3109 3110 3112 3114 3116 3117 3119 3121 3123 3124 3126 3129 3131 3133 3136 3138 3140 3142 3144 3145 3147 3149 3150 3151 3152 3153 3153 3155 3157 3159 3161 3161 3161 3162 3164 3166 3167 3168 3168 3169 3170 3171 3172 3174 3174 3175 3176 3177 3178 3179 3179 3179 3179 3179
3090 3091 3093 3095 3097 3098 3100 3102 3104 3106 3107 3109 3110 3112 3114 3117 3119 3121 3122 3123 3125 3127 3129 3132 3134 3136 3138 3140 3142 3143 3145 3147 3148 3150 3151 3151 3152 3153 3155 3158 3159 3160 3160 3161 3163 3165 3166 3167 3167 3168 3169 3170 3171 3172 3172 3173 3175 3176 3177 3177 3177 3178 3178
3085 3087 3089 3091 3093 3094 3096 3098 3100 3102 3104 3105 3107 3109 3111 3113 3116 3117 3119 3120 3121 3123 3125 3128 3130 3132 3134 3136 3138 3140 3142 3143 3145 3146 3148 3148 3149 3150 3151 3154 3157 3158 3159 3159 3160 3162 3164 3165 3165 3166 3167 3168 3169 3169 3170 3171 3172 3174 3174 3175 3176 3176 3176
3080 3082 3084 3087 3088 3090 3092 3094 3096 3099 3101 3102 3103 3106 3108 3110 3112 3114 3115 3117 3118 3120 3122 3124 3127 3129 3131 3132 3134 3137 3139 3140 3141 3143 3144 3145 3145 3146 3148 3150 3154 3156 3157 3156 3157 3159 3161 3162 3163 3163 3164 3165 3166 3167 3168 3168 3169 3171 3172 3173 3173 3174 3174
3076 3078 3080 3082 3084 3086 3088 3090 3092 3095 3097 3099 3100 3102 3105 3107 3109 3110 3112 3113 3115 3116 3118 3121 3123 3126 3127 3129 3131 3133 3135 3136 3137 3139 3140 3141 3142 3143 3145 3147 3150 3153 3154 3154 3154 3156 3157 3159 3160 3161 3162 3163 3163 3164 3165 3166 3166 3168 3170 3170 3171 3171 3172
3072 3074 3075 3077 3079 3081 3084 3086 3088 3091 3093 3095 3096 3098 3101 3103 3105 3107 3108 3110 3111 3113 3115 3117 3119 3121 3124 3126 3128 3129 3131 3132 3133 3134 3136 3137 3138 3140 3142 3144 3146 3149 3150 3151 3151 3153 3154 3156 3157 3158 3159 3160 3160 3162 3163 3163 3163 3165 3167 3167 3168 3169 3169
3069 3070 3071 3073 3074 3077 3079 3081 3084 3086 3088 3090 3092 3094 3096 3099 3101 3103 3104 3106 3108 3110 3112 3114 3116 3118 3120 3122 3124 3125 3127 3128 3130 3131 3132 3134 3136 3137 3139 3141 3143 3145 3146 3147 3148 3149 3151 3152 3154 3155 3157 3157 3158 3159 3160 3160 3161 3162 3164 3165 3165 3166 3167
3065 3066 3067 3068 3070 3072 3074 3076 3079 3081 3083 3085 3087 3089 3092 3094 3096 3098 3100 3102 3103 3106 3108 3110 3112 3114 3116 3118 3120 3122 3124 3126 3128 3130 3131 3133 3135 3135 3135 3137 3139 3141 3142 3143 3144 3146 3147 3149 3150 3152 3154 3155 3155 3156 3157 3158 3158 3159 3161 3162 3162 3163 3164
3063 3063 3064 3065 3066 3068 3069 3071 3073 3076 3078 3080 3082 3084 3086 3089 3091 3093 3095 3097 3099 3102 3104 3106 3108 3110 3112 3114 3116 3118 3120 3122 3125 3127 3128 3130 3132 3132 3132 3133 3135 3137 3138 3139 3140 3142 3143 3145 3146 3147 3149 3152 3153 3154 3154 3155 3155 3156 3157 3158 3159 3159 3160
3061 3061 3062 3062 3063 3064 3065 3067 3068 3070 3073 3075 3077 3078 3081 3083 3085 3087 3090 3093 3095 3097 3099 3101 3103 3105 3108 3109 3111 3113 3115 3117 3119 3121 3123 3124 3126 3128 3129 3130 3131 3133 3134 3135 3136 3138 3139 3141 3142 3143 3145 3147 3149 3151 3151 3152 3152 3153 3153 3154 3156 3156 3156
3059 3059 3059 3059 3060 3061 3062 3063 3064 3065 3067 3070 3071 3073 3075 3078 3080 3082 3084 3087 3090 3092 3094 3096 3098 3100 3103 3104 3106 3109 3110 3111 3113 3115 3118 3119 3121 3124 3126 3127 3127 3128 3130 3131 3132 3134 3136 3137 3138 3139 3141 3142 3145 3147 3148 3148 3149 3149 3150 3151 3152 3152 3152
3056 3056 3057 3056 3057 3057 3058 3059 3060 3061 3062 3064 3066 3068 3070 3072 3074 3076 3079 3081 3084 3086 3089 3091 3093 3095 3097 3100 3101 3103 3105 3106 3108 3110 3112 3115 3117 3119 3120 3122 3123 3124 3125 3126 3128 3130 3132 3133 3134 3135 3137 3138 3140 3141 3143 3144 3146 3146 3146 3147 3148 3148 3149
3054 3054 3054 3054 3054 3054 3054 3054 3055 3056 3057 3059 3060 3062 3064 3066 3069 3071 3073 3075 3077 3080 3082 3085 3088 3090 3092 3094 3096 3098 3099 3101 3103 3106 3108 3110 3112 3113 3114 3116 3118 3119 3120 3122 3124 3126 3127 3128 3130 3131 3132 3134 3135 3136 3137 3139 3141 3142 3142 3143 3144 3145 3146
3052 3051 3051 3051 3051 3050 3050 3050 3051 3051 3053 3054 3055 3057 3059 3061 3063 3065 3067 3069 3071 3073 3075 3078 3082 3084 3086 3088 3091 3093 3094 3096 3099 3101 3104 3105 3107 3108 3109 3110 3112 3114 3115 3117 3119 3121 3123 3124 3125 3126 3128 3130 3131 3132 3133 3134 3136 3137 3138 3139 3139 3141 3141
3049 3049 3048 3048 3047 3047 3047 3046 3046 3047 3048 3049 3051 3052 3054 3055 3057 3059 3060 3062 3064 3066 3068 3071 3074 3077 3080 3081 3084 3087 3088 3090 3093 3096 3099 3100 3101 3102 3104 3105 3107 3110 3111 3113 3114 3116 3118 3119 3120 3121 3123 3124 3126 3127 3127 3128 3130 3132 3133 3134 3135 3136 3137
3047 3046 3045 3044 3044 3043 3043 3043 3043 3043 3044 3044 3046 3047 3048 3049 3051 3052 3054 3055 3057 3059 3061 3063 3066 3069 3072 3074 3076 3079 3081 3083 3086 3090 3092 3094 3095 3097 3099 3101 3103 3105 3107 3108 3109 3110 3112 3114 3115 3116 3117 3119 3120 3121 3122 3123 3125 3127 3128 3129 3131 3132 3132
3044 3043 3042 3042 3041 3040 3039 3039 3039 3040 3040 3040 3041 3041 3042 3043 3045 3046 3047 3049 3050 3052 3053 3056 3058 3060 3062 3065 3068 3071 3073 3076 3079 3082 3085 3087 3089 3092 3094 3096 3098 3101 3102 3104 3104 3105 3107 3108 3110 3111 3113 3114 3114 3115 3117 3118 3119 3121 3123 3125 3127 3128 3128
3042 3040 3039 3038 3038 3037 3036 3035 3035 3036 3036 3036 3036 3037 3037 3038 3039 3040 3042 3043 3044 3046 3047 3049 3051 3053 3054 3057 3060 3063 3065 3068 3071 3074 3077 3079 3082 3085 3088 3090 3093 3095 3097 3099 3100 3100 3101 3103 3105 3106 3108 3109 3109 3110 3111 3112 3114 3116 3118 3119 3121 3122 3125
3039 3038 3036 3035 3034 3034 3033 3033 3032 3032 3032 3033 3033 3033 3034 3034 3035 3035 3036 3037 3038 3040 3041 3043 3045 3046 3047 3049 3052 3055 3058 3061 3063 3066 3069 3072 3075 3078 3081 3084 3086 3089 3092 3094 3096 3096 3097 3098 3100 3101 3103 3103 3104 3106 3106 3107 3108 3110 3111 3113 3115 3117 3121
3037 3035 3034 3032 3031 3031 3031 3031 3030 3030 3029 3029 3029 3030 3030 3030 3031 3031 3031 3032 3032 3034 3035 3037 3038 3040 3041 3043 3045 3047 3050 3053 3056 3059 3062 3065 3067 3070 3074 3077 3079 3082 3085 3088 3091 3093 3094 3094 3095 3096 3097 3098 3099 3101 3101 3102 3103 3104 3107 3108 3109 3112 3115
3035 3034 3032 3031 3029 3028 3028 3028 3028 3027 3027 3027 3027 3027 3026 3026 3026 3026 3027 3027 3027 3028 3029 3031 3032 3033 3035 3037 3038 3040 3042 3045 3048 3052 3055 3058 3060 3063 3067 3070 3072 3076 3079 3082 3085 3089 3091 3091 3090 3091 3092 3093 3094 3095 3096 3098 3099 3101 3102 3102 3103 3107 3110
3034 3033 3031 3030 3028 3027 3026 3026 3025 3025 3024 3024 3024 3024 3024 3023 3023 3023 3023 3022 3022 3022 3023 3025 3026 3027 3029 3031 3032 3033 3035 3038 3042 3044 3047 3051 3054 3056 3059 3062 3066 3070 3073 3076 3079 3083 3086 3087 3086 3086 3087 3088 3089 3090 3091 3093 3095 3096 3097 3097 3099 3102 3105
3033 3031 3030 3029 3027 3026 3025 3024 3023 3022 3022 3021 3021 3021 3021 3021 3021 3021 3020 3019 3018 3017 3017 3019 3020 3021 3022 3024 3026 3027 3029 3031 3035 3038 3041 3045 3047 3049 3052 3056 3059 3063 3067 3070 3073 3076 3079 3081 3082 3082 3083 3084 3084 3084 3086 3089 3090 3091 3092 3092 3094 3096 3098
3031 3030 3029 3027 3026 3025 3024 3023 3022 3021 3020 3019 3018 3018 3017 3018 3018 3018 3017 3016 3015 3014 3013 3013 3014 3015 3016 3018 3020 3021 3023 3025 3028 3031 3035 3038 3042 3044 3046 3050 3054 3057 3061 3064 3067 3069 3071 3073 3075 3077 3079 3079 3078 3078 3081 3085 3085 3086 3087 3087 3088 3090 3091
3030 3029 3028 3026 3025 3024 3023 3022 3021 3020 3019 3018 3017 3016 3015 3015 3015 3015 3014 3013 3012 3011 3010 3010 3010 3010 3011 3013 3014 3016 3017 3019 3022 3026 3028 3032 3035 3037 3040 3045 3049 3052 3055 3058 3061 3064 3066 3067 3069 3072 3073 3072 3071 3073 3077 3080 3079 3080 3081 3082 3083 3084 3084
3029 3028 3027 3026 3024 3023 3022 3021 3021 3020 3019 3017 3016 3015 3013 3013 3012 3012 3011 3010 3009 3009 3007 3007 3007 3007 3007 3008 3010 3011 3012 3014 3017 3020 3022 3025 3028 3031 3034 3039 3043 3047 3050 3053 3055 3058 3060 3062 3064 3066 3067 3067 3067 3070 3073 3073 3073 3075 3075 3075 3075 3076 3077
3027 3026 3026 3025 3024 3023 3022 3021 3019 3018 3017 3016 3015 3013 3013 3012 3011 3010 3009 3008 3007 3006 3005 3004 3004 3004 3004 3004 3005 3006 3008 3010 3012 3014 3015 3018 3021 3024 3027 3031 3036 3040 3044 3047 3049 3052 3055 3057 3059 3060 3061 3063 3064 3065 3067 3067 3068 3069 3069 3069 3069 3069 3070
3026 3025 3025 3024 3023 3022 3021 3019 3018 3017 3016 3014 3013 3012 3012 3011 3010 3009 3008 3006 3005 3003 3002 3002 3001 3001 3001 3001 3002 3002 3003 3005 3007 3009 3009 3011 3014 3017 3021 3024 3029 3033 3037 3040 3043 3046 3049 3051 3053 3054 3056 3057 3058 3059 3060 3061 3061 3062 3063 3063 3063 3063 3064
3025 3024 3023 3022 3022 3020 3019 3018 3017 3016 3015 3013 3012 3011 3010 3009 3009 3008 3006 3005 3003 3001 3000 2999 2998 2998 2998 2998 2999 3000 3001 3002 3003 3005 3005 3007 3009 3011 3014 3018 3022 3026 3030 3033 3037 3040 3042 3045 3047 3049 3050 3051 3052 3053 3054 3054 3055 3056 3057 3057 3057 3057 3058